Dades meteomassalio
Diari Summary for Diciembre 27, 2017 Units:  English    Metric   Both
« Previous Day
Next Day »
Diari Semanal Mensual Anual Personalitzat
  Maxima: Minima: Mijana:
Temperatura: TemperatureC °F 2.8 °F 7.2 °F
Rosada: DewpointC °F -0.4 °F 1.8 °F
Humitat: Humidity % 46 % 70 %
Velocitat del vent: WindSpeedKMH mph 0.0 mph 27.8 mph
Racha vent: WindSpeedGustKMH mph - -
Vent:- - WNW
Pressio: PressurehPa in 1003.3 in -
Pluja: 3.3 in    
Historical Graphs
 
 
Tabular Data for Diciembre 27, 2017
Time Temperature Dew Point Pressure Wind Wind Speed Wind Gust Humidity Rainfall Rate (Hourly) solar Conditions
TemperatureC °F DewpointC °F PressurehPa in Calm     Humidity % HourlyPrecipMM in SolarRadiationWatts/m^2 W/m2 Conditions
00:03 2.8 °F -0.2 °F 1010.0 in Calm     81 % 0.0 in 0.0 W/m2 RA
00:05 2.8 °F 0.0 °F 1010.0 in Calm     82 % 0.0 in 0.0 W/m2 CLR
00:10 2.8 °F 0.0 °F 1010.0 in Calm     82 % 0.0 in 0.0 W/m2 CLR
00:11 2.8 °F 0.0 °F 1010.0 in Calm     82 % 0.0 in 0.0 W/m2 CLR
00:16 3.3 °F 0.6 °F 1010.0 in Calm     82 % 0.0 in 0.0 W/m2 CLR
00:17 3.3 °F 0.6 °F 1010.0 in Calm     82 % 0.0 in 0.0 W/m2 CLR
00:22 3.3 °F 0.7 °F 1009.7 in Calm     83 % 0.0 in 0.0 W/m2 CLR
00:23 3.3 °F 0.7 °F 1009.7 in Calm     83 % 0.0 in 0.0 W/m2 CLR
00:26 3.3 °F 0.7 °F 1009.7 in Calm     83 % 0.0 in 0.0 W/m2 RA
00:29 3.3 °F 0.7 °F 1009.7 in Calm     83 % 0.0 in 0.0 W/m2 RA
00:34 3.3 °F 0.7 °F 1009.4 in Calm     83 % 0.3 in 0.0 W/m2 RA
00:35 3.3 °F 0.7 °F 1009.4 in Calm     83 % 0.3 in 0.0 W/m2 RA
00:40 3.3 °F 0.9 °F 1009.4 in Calm     84 % 0.5 in 0.0 W/m2 RA
00:41 3.3 °F 0.9 °F 1009.4 in Calm     84 % 0.5 in 0.0 W/m2 RA
00:46 3.3 °F 1.1 °F 1009.0 in Calm     85 % 0.5 in 0.0 W/m2 RA
00:47 3.3 °F 1.1 °F 1008.7 in Calm     85 % 0.5 in 0.0 W/m2 RA
00:48 3.3 °F 1.1 °F 1008.7 in Calm     85 % 0.5 in 0.0 W/m2 RA
00:53 3.3 °F 1.2 °F 1008.7 in Calm     86 % 0.8 in 0.0 W/m2 RA
00:54 3.3 °F 1.2 °F 1008.7 in Calm     86 % 0.8 in 0.0 W/m2 RA
00:55 3.3 °F 1.2 °F 1008.4 in Calm     86 % 0.8 in 0.0 W/m2 RA
01:00 3.3 °F 1.2 °F 1008.4 in Calm     86 % 1.0 in 0.0 W/m2 RA
01:05 3.3 °F 1.6 °F 1008.0 in Calm     88 % 1.3 in 0.0 W/m2
01:06 3.3 °F 1.6 °F 1008.0 in Calm     88 % 1.3 in 0.0 W/m2 CLR
01:07 3.3 °F 1.6 °F 1007.7 in Calm     88 % 1.3 in 0.0 W/m2 CLR
01:11 3.3 °F 1.7 °F 1007.7 in Calm     89 % 1.3 in 0.0 W/m2 CLR
01:16 3.3 °F 1.7 °F 1007.3 in Calm     89 % 1.3 in 0.0 W/m2 CLR
01:18 3.3 °F 1.6 °F 1007.3 in Calm     88 % 1.3 in 0.0 W/m2 CLR
01:23 3.3 °F 1.6 °F 1007.3 in Calm     88 % 1.3 in 0.0 W/m2 CLR
01:28 3.3 °F 1.6 °F 1007.0 in Calm     88 % 1.0 in 0.0 W/m2 CLR
01:29 3.3 °F 1.6 °F 1007.3 in Calm     88 % 1.0 in 0.0 W/m2 CLR
01:34 3.3 °F 1.6 °F 1006.7 in Calm     88 % 0.8 in 0.0 W/m2 CLR
01:35 3.3 °F 1.6 °F 1006.7 in Calm     88 % 0.8 in 0.0 W/m2 CLR
01:40 3.3 °F 1.6 °F 1006.3 in Calm     88 % 0.5 in 0.0 W/m2 CLR
01:45 3.3 °F 1.7 °F 1006.0 in Calm     89 % 0.5 in 0.0 W/m2 CLR
01:47 3.3 °F 1.7 °F 1006.0 in Calm     89 % 0.5 in 0.0 W/m2 CLR
01:51 3.3 °F 1.7 °F 1006.0 in Calm     89 % 0.5 in 0.0 W/m2 CLR
01:53 2.8 °F 1.2 °F 1005.6 in Calm     89 % 0.3 in 0.0 W/m2 CLR
01:58 2.8 °F 1.3 °F 1005.6 in Calm     90 % 0.3 in 0.0 W/m2 CLR
02:00 3.3 °F 1.8 °F 1005.6 in Calm     90 % 0.0 in 0.0 W/m2 CLR
02:05 3.3 °F 1.8 °F 1005.6 in Calm     90 % 0.0 in 0.0 W/m2 CLR
02:06 3.3 °F 1.8 °F 1005.6 in Calm     90 % 0.0 in 0.0 W/m2 CLR
02:08 3.3 °F 1.8 °F 1005.6 in Calm     90 % 0.0 in 0.0 W/m2 CLR
02:13 3.3 °F 1.8 °F 1005.3 in Calm     90 % 0.0 in 0.0 W/m2 CLR
02:14 3.3 °F 1.8 °F 1005.3 in Calm     90 % 0.0 in 0.0 W/m2 CLR
02:19 3.3 °F 1.8 °F 1005.3 in Calm     90 % 0.0 in 0.0 W/m2 CLR
02:24 3.3 °F 1.8 °F 1005.3 in Calm     90 % 0.0 in 0.0 W/m2 CLR
02:26 3.3 °F 1.8 °F 1005.0 in Calm     90 % 0.0 in 0.0 W/m2 CLR
02:31 3.3 °F 1.8 °F 1005.0 in Calm     90 % 0.0 in 0.0 W/m2 CLR
02:32 3.3 °F 1.8 °F 1005.0 in Calm     90 % 0.0 in 0.0 W/m2 CLR
02:37 3.3 °F 2.0 °F 1005.3 in Calm     91 % 0.0 in 0.0 W/m2 CLR
02:39 3.3 °F 2.0 °F 1005.0 in Calm     91 % 0.0 in 0.0 W/m2 CLR
02:43 3.3 °F 1.8 °F 1005.3 in Calm     90 % 0.0 in 0.0 W/m2 CLR
02:48 3.3 °F 1.8 °F 1005.0 in Calm     90 % 0.0 in 0.0 W/m2 CLR
02:49 3.3 °F 2.0 °F 1005.0 in Calm     91 % 0.0 in 0.0 W/m2 CLR
02:54 3.3 °F 2.0 °F 1005.0 in Calm     91 % 0.0 in 0.0 W/m2 CLR
02:57 3.3 °F 2.0 °F 1005.0 in Calm     91 % 0.0 in 0.0 W/m2 CLR
03:00 3.3 °F 2.0 °F 1005.0 in Calm     91 % 0.0 in 0.0 W/m2 CLR
03:04 3.3 °F 2.0 °F 1005.0 in Calm     91 % 0.0 in 0.0 W/m2 CLR
03:06 3.3 °F 2.0 °F 1005.0 in Calm     91 % 0.0 in 0.0 W/m2 CLR
03:09 3.3 °F 2.0 °F 1005.0 in Calm     91 % 0.0 in 0.0 W/m2 CLR
03:13 3.3 °F 2.0 °F 1005.0 in Calm     91 % 0.0 in 0.0 W/m2 CLR
03:15 3.9 °F 2.6 °F 1005.0 in Calm     91 % 0.0 in 0.0 W/m2 CLR
03:18 3.9 °F 2.6 °F 1005.0 in Calm     91 % 0.0 in 0.0 W/m2 CLR
03:23 3.9 °F 2.6 °F 1005.0 in Calm     91 % 0.0 in 0.0 W/m2 CLR
03:24 3.9 °F 2.6 °F 1004.6 in Calm     91 % 0.0 in 0.0 W/m2 CLR
03:29 3.9 °F 2.6 °F 1005.0 in Calm     91 % 0.0 in 0.0 W/m2 CLR
03:30 3.9 °F 2.6 °F 1005.0 in Calm     91 % 0.0 in 0.0 W/m2 CLR
03:34 3.9 °F 2.6 °F 1005.0 in Calm     91 % 0.0 in 0.0 W/m2 CLR
03:39 3.9 °F 2.7 °F 1004.3 in Calm     92 % 0.0 in 0.0 W/m2 CLR
03:40 3.9 °F 2.7 °F 1004.3 in Calm     92 % 0.0 in 0.0 W/m2 CLR
03:42 3.9 °F 2.7 °F 1004.3 in Calm     92 % 0.0 in 0.0 W/m2 CLR
03:45 3.9 °F 2.6 °F 1003.9 in Calm     91 % 0.0 in 0.0 W/m2 CLR
03:49 3.9 °F 2.6 °F 1003.9 in Calm     91 % 0.0 in 0.0 W/m2 CLR
03:50 3.9 °F 2.6 °F 1003.9 in Calm     91 % 0.0 in 0.0 W/m2 CLR
03:55 3.9 °F 2.6 °F 1003.6 in Calm     91 % 0.0 in 0.0 W/m2 CLR
03:57 3.9 °F 2.6 °F 1003.6 in Calm     91 % 0.0 in 0.0 W/m2 CLR
04:00 3.9 °F 2.6 °F 1003.6 in Calm     91 % 0.0 in 0.0 W/m2 CLR
04:04 3.9 °F 2.6 °F 1003.6 in West 1.9 mph 1.9 mph 91 % 0.0 in 0.0 W/m2 CLR
04:05 3.9 °F 2.6 °F 1003.6 in West 9.3 mph 9.3 mph 91 % 0.0 in 0.0 W/m2 CLR
04:09 3.9 °F 2.7 °F 1003.3 in West 14.5 mph 14.5 mph 92 % 0.0 in 0.0 W/m2 CLR
04:20 4.4 °F 3.3 °F 1003.6 in NW 9.7 mph 9.7 mph 92 % 0.3 in 0.0 W/m2
04:22 4.4 °F 3.3 °F 1003.6 in WNW 9.3 mph 9.3 mph 92 % 0.3 in 0.0 W/m2 CLR
04:27 4.4 °F 3.1 °F 1003.6 in WNW 9.3 mph 9.3 mph 91 % 0.5 in 0.0 W/m2
04:28 4.4 °F 3.1 °F 1003.6 in West 7.4 mph 7.4 mph 91 % 0.5 in 0.0 W/m2
04:29 4.4 °F 2.9 °F 1003.6 in West 11.1 mph 11.1 mph 90 % 0.5 in 0.0 W/m2 CLR
04:33 4.4 °F 2.8 °F 1003.6 in SSW 3.7 mph   89 % 0.5 in 0.0 W/m2 RA
04:38 4.4 °F 2.6 °F 1003.6 in Calm     88 % 0.8 in 0.0 W/m2 RA
04:41 4.4 °F 2.6 °F 1003.6 in Calm     88 % 1.0 in 0.0 W/m2 RA
04:44 4.4 °F 2.8 °F 1003.6 in Calm     89 % 1.3 in 0.0 W/m2 RA
04:47 4.4 °F 2.8 °F 1003.6 in WNW 19.3 mph 19.3 mph 89 % 1.5 in 0.0 W/m2 RA
04:51 4.4 °F 2.8 °F 1003.9 in North 7.4 mph 7.4 mph 89 % 1.5 in 0.0 W/m2 RA
04:54 4.4 °F 2.8 °F 1003.9 in North 16.7 mph 16.7 mph 89 % 1.5 in 0.0 W/m2 RA
04:57 5.0 °F 3.3 °F 1003.9 in North 19.3 mph 19.3 mph 89 % 1.8 in 0.0 W/m2 RA
05:02 5.0 °F 3.3 °F 1004.3 in NNW 9.3 mph 9.3 mph 89 % 1.8 in 0.0 W/m2
05:04 5.0 °F 3.2 °F 1004.3 in NNW 18.5 mph 18.5 mph 88 % 1.8 in 0.0 W/m2 CLR
05:09 6.1 °F 4.3 °F 1004.3 in NW 29.6 mph 29.6 mph 88 % 1.8 in 0.0 W/m2 CLR
05:10 6.1 °F 4.3 °F 1004.3 in NW 29.6 mph 29.6 mph 88 % 1.8 in 0.0 W/m2 CLR
05:15 7.2 °F 5.1 °F 1004.3 in NW 25.9 mph 25.9 mph 86 % 1.5 in 0.0 W/m2 CLR
05:16 7.8 °F 5.6 °F 1004.3 in North 27.4 mph 27.4 mph 86 % 1.5 in 0.0 W/m2 CLR
05:21 8.3 °F 5.8 °F 1004.6 in NW 48.1 mph 48.1 mph 84 % 1.5 in 0.0 W/m2 CLR
05:25 8.3 °F 5.8 °F 1004.6 in North 29.6 mph 29.6 mph 84 % 1.5 in 0.0 W/m2 CLR
05:27 8.3 °F 5.8 °F 1004.6 in North 44.4 mph 44.4 mph 84 % 1.5 in 0.0 W/m2 CLR
05:32 8.3 °F 5.8 °F 1004.3 in NW 31.5 mph 31.5 mph 84 % 1.3 in 0.0 W/m2 CLR
05:37 7.8 °F 5.2 °F 1004.6 in NW 29.6 mph 29.6 mph 84 % 1.0 in 0.0 W/m2 CLR
05:42 7.8 °F 5.4 °F 1004.6 in North 35.4 mph 35.4 mph 85 % 0.8 in 0.0 W/m2 CLR
05:43 7.8 °F 5.4 °F 1004.6 in NNW 37.0 mph 37.0 mph 85 % 0.8 in 0.0 W/m2 CLR
05:48 7.8 °F 5.4 °F 1004.6 in NW 31.5 mph 31.5 mph 85 % 0.5 in 0.0 W/m2 CLR
05:49 7.8 °F 5.4 °F 1004.6 in NNW 31.5 mph 31.5 mph 85 % 0.5 in 0.0 W/m2 CLR
05:50 7.8 °F 5.4 °F 1004.6 in NW 25.9 mph 25.9 mph 85 % 0.5 in 0.0 W/m2 CLR
05:54 7.2 °F 4.9 °F 1004.6 in NW 27.4 mph 27.4 mph 85 % 0.3 in 0.0 W/m2 CLR
05:57 7.2 °F 5.1 °F 1004.6 in NNW 31.5 mph 31.5 mph 86 % 0.0 in 0.0 W/m2 CLR
06:00 7.2 °F 5.1 °F 1004.6 in NNW 29.6 mph 29.6 mph 86 % 0.0 in 0.0 W/m2 CLR
06:03 7.2 °F 5.1 °F 1004.6 in NW 20.9 mph 20.9 mph 86 % 0.0 in 0.0 W/m2 CLR
06:08 6.7 °F 4.5 °F 1004.6 in NW 18.5 mph 18.5 mph 86 % 0.0 in 0.0 W/m2 CLR
06:09 6.7 °F 4.5 °F 1004.6 in WNW 22.2 mph 22.2 mph 86 % 0.0 in 0.0 W/m2 CLR
06:15 6.7 °F 4.5 °F 1004.6 in NNW 22.2 mph 22.2 mph 86 % 0.0 in 0.0 W/m2 CLR
06:16 6.7 °F 4.5 °F 1004.6 in NW 18.5 mph 18.5 mph 86 % 0.0 in 0.0 W/m2 CLR
06:21 6.1 °F 3.9 °F 1004.6 in NW 19.3 mph 19.3 mph 86 % 0.0 in 0.0 W/m2 CLR
06:26 6.1 °F 4.1 °F 1004.6 in NW 18.5 mph 18.5 mph 87 % 0.0 in 0.0 W/m2 CLR
06:31 6.1 °F 4.1 °F 1004.6 in NW 18.5 mph 18.5 mph 87 % 0.0 in 0.0 W/m2 CLR
06:35 6.1 °F 4.1 °F 1004.6 in NW 25.9 mph 25.9 mph 87 % 0.0 in 0.0 W/m2 CLR
06:37 6.1 °F 4.1 °F 1004.6 in NNW 25.9 mph 25.9 mph 87 % 0.0 in 0.0 W/m2 CLR
06:41 6.1 °F 4.1 °F 1004.6 in NW 22.5 mph 22.5 mph 87 % 0.0 in 0.0 W/m2 CLR
06:42 6.1 °F 4.1 °F 1004.6 in NW 22.2 mph 22.2 mph 87 % 0.0 in 0.0 W/m2 CLR
06:47 6.1 °F 4.1 °F 1004.6 in NW 22.2 mph 22.2 mph 87 % 0.0 in 0.0 W/m2 CLR
06:48 6.1 °F 4.1 °F 1004.6 in NNW 20.4 mph 20.4 mph 87 % 0.0 in 0.0 W/m2 CLR
06:50 6.1 °F 4.1 °F 1004.6 in NW 18.5 mph 18.5 mph 87 % 0.0 in 0.0 W/m2 CLR
06:55 6.1 °F 4.3 °F 1004.6 in NW 16.7 mph 16.7 mph 88 % 0.0 in 0.0 W/m2 CLR
06:56 6.1 °F 4.3 °F 1004.6 in NW 20.4 mph 20.4 mph 88 % 0.0 in 0.0 W/m2 CLR
07:01 5.6 °F 3.7 °F 1004.6 in NW 18.5 mph 18.5 mph 88 % 0.0 in 0.0 W/m2 CLR
07:02 5.6 °F 3.7 °F 1004.6 in NW 18.5 mph 18.5 mph 88 % 0.0 in 0.0 W/m2 CLR
07:03 5.6 °F 3.7 °F 1004.6 in NW 16.7 mph 16.7 mph 88 % 0.0 in 0.0 W/m2 CLR
07:07 5.6 °F 3.7 °F 1004.6 in NW 16.7 mph 16.7 mph 88 % 0.0 in 0.0 W/m2 CLR
07:12 5.0 °F 3.2 °F 1004.6 in NW 13.0 mph 13.0 mph 88 % 0.0 in 0.0 W/m2 CLR
07:13 5.0 °F 3.2 °F 1005.0 in NW 14.8 mph 14.8 mph 88 % 0.0 in 0.0 W/m2 CLR
07:18 5.0 °F 3.2 °F 1005.0 in NW 13.0 mph 13.0 mph 88 % 0.0 in 0.0 W/m2 CLR
07:19 5.0 °F 3.2 °F 1005.0 in WNW 13.0 mph 13.0 mph 88 % 0.0 in 0.0 W/m2 CLR
07:24 5.0 °F 3.2 °F 1005.0 in WNW 11.3 mph 11.3 mph 88 % 0.0 in 0.0 W/m2 CLR
07:25 5.0 °F 3.2 °F 1005.0 in WNW 13.0 mph 13.0 mph 88 % 0.0 in 0.0 W/m2 CLR
07:30 4.4 °F 2.6 °F 1005.3 in WNW 5.6 mph 5.6 mph 88 % 0.0 in 0.0 W/m2 CLR
07:31 4.4 °F 2.6 °F 1005.3 in WNW 6.4 mph 6.4 mph 88 % 0.0 in 0.0 W/m2 CLR
07:36 3.9 °F 2.1 °F 1005.3 in WNW 11.1 mph 11.1 mph 88 % 0.0 in 0.0 W/m2 CLR
07:39 3.9 °F 2.2 °F 1005.3 in West 7.4 mph 7.4 mph 89 % 0.0 in 0.0 W/m2 CLR
07:42 3.9 °F 2.2 °F 1005.3 in West 11.1 mph 11.1 mph 89 % 0.0 in 0.0 W/m2 CLR
07:47 3.9 °F 2.2 °F 1005.3 in West 7.4 mph 7.4 mph 89 % 0.0 in 0.0 W/m2 CLR
07:52 3.9 °F 2.2 °F 1005.3 in West 13.0 mph 13.0 mph 89 % 0.0 in 0.0 W/m2 CLR
07:53 3.9 °F 2.2 °F 1005.3 in West 11.1 mph 11.1 mph 89 % 0.0 in 0.0 W/m2 CLR
07:58 3.3 °F 1.8 °F 1005.3 in West 14.8 mph 14.8 mph 90 % 0.0 in 0.0 W/m2 CLR
07:59 3.3 °F 1.8 °F 1005.3 in West 16.7 mph 16.7 mph 90 % 0.0 in 0.0 W/m2 CLR
08:02 3.3 °F 1.8 °F 1005.3 in WNW 14.8 mph 14.8 mph 90 % 0.0 in 0.0 W/m2 CLR
08:04 3.3 °F 1.7 °F 1005.3 in WNW 22.2 mph 22.2 mph 89 % 0.0 in 0.0 W/m2 CLR
08:09 3.3 °F 1.7 °F 1005.3 in WNW 11.3 mph 11.3 mph 89 % 0.0 in 0.0 W/m2 CLR
08:10 3.3 °F 1.6 °F 1005.3 in WNW 20.9 mph 20.9 mph 88 % 0.0 in 0.0 W/m2 CLR
08:15 3.3 °F 1.1 °F 1005.3 in WNW 25.9 mph 25.9 mph 85 % 0.0 in 0.0 W/m2 OVC
08:19 3.3 °F 0.1 °F 1005.3 in WNW 24.1 mph 24.1 mph 79 % 0.0 in 0.0 W/m2 OVC
08:21 3.9 °F 0.4 °F 1005.3 in WNW 27.8 mph 27.8 mph 78 % 0.0 in 0.0 W/m2 OVC
08:26 3.9 °F -0.2 °F 1005.3 in WNW 29.6 mph 29.6 mph 75 % 0.0 in 5.0 W/m2 OVC
08:31 4.4 °F 0.0 °F 1005.3 in NW 31.5 mph 31.5 mph 73 % 0.0 in 7.0 W/m2 BKN
08:32 5.0 °F 0.4 °F 1005.3 in NW 31.5 mph 31.5 mph 72 % 0.0 in 7.0 W/m2 BKN
08:37 5.0 °F 0.2 °F 1005.6 in WNW 25.9 mph 25.9 mph 71 % 0.0 in 11.0 W/m2 BKN
08:42 5.0 °F 0.0 °F 1005.3 in WNW 31.5 mph 31.5 mph 70 % 0.0 in 12.0 W/m2 BKN
08:43 5.0 °F 0.0 °F 1005.6 in NW 22.2 mph 22.2 mph 70 % 0.0 in 12.0 W/m2 BKN
08:44 5.6 °F 0.5 °F 1005.6 in WNW 24.1 mph 24.1 mph 70 % 0.0 in 14.0 W/m2 BKN
08:49 5.0 °F 0.0 °F 1005.6 in WNW 27.8 mph 27.8 mph 70 % 0.0 in 16.0 W/m2 BKN
08:50 5.0 °F -0.2 °F 1005.6 in WNW 22.2 mph 22.2 mph 69 % 0.0 in 16.0 W/m2 BKN
08:55 5.6 °F 0.3 °F 1006.0 in NW 22.2 mph 22.2 mph 69 % 0.0 in 16.0 W/m2 BKN
08:56 5.6 °F 0.3 °F 1006.0 in WNW 20.9 mph 20.9 mph 69 % 0.0 in 18.0 W/m2 BKN
09:01 5.0 °F -0.2 °F 1006.0 in WNW 22.2 mph 22.2 mph 69 % 0.0 in 21.0 W/m2 BKN
09:02 5.0 °F -0.2 °F 1006.3 in WNW 24.1 mph 24.1 mph 69 % 0.0 in 28.0 W/m2 BKN
09:05 5.0 °F -0.2 °F 1006.3 in NW 22.5 mph 22.5 mph 69 % 0.0 in 28.0 W/m2 BKN
09:08 5.0 °F -0.4 °F 1006.3 in NW 31.5 mph 31.5 mph 68 % 0.0 in 33.0 W/m2 BKN
09:13 5.6 °F 0.1 °F 1006.3 in NW 22.2 mph 22.2 mph 68 % 0.0 in 54.0 W/m2 SCT
09:16 6.1 °F 0.7 °F 1006.3 in NW 22.2 mph 22.2 mph 68 % 0.0 in 56.0 W/m2 SCT
09:19 6.1 °F 0.4 °F 1006.3 in NW 27.8 mph 27.8 mph 67 % 0.0 in 76.0 W/m2 FEW
09:24 6.7 °F 0.8 °F 1006.7 in NW 37.0 mph 37.0 mph 66 % 0.0 in 102.0 W/m2 FEW
09:25 6.7 °F 0.8 °F 1006.7 in NW 37.0 mph 37.0 mph 66 % 0.0 in 104.0 W/m2 FEW
09:28 7.2 °F 1.3 °F 1006.7 in NW 27.8 mph 27.8 mph 66 % 0.0 in 60.0 W/m2 CLR
09:31 7.8 °F 1.6 °F 1006.7 in NW 35.2 mph 35.2 mph 65 % 0.0 in 37.0 W/m2 FEW
09:36 7.8 °F 1.6 °F 1006.7 in NW 31.5 mph 31.5 mph 65 % 0.0 in 118.0 W/m2 FEW
09:37 8.3 °F 2.1 °F 1006.7 in NW 31.5 mph 31.5 mph 65 % 0.0 in 114.0 W/m2 FEW
09:42 8.3 °F 2.1 °F 1006.7 in WNW 37.0 mph 37.0 mph 65 % 0.0 in 128.0 W/m2 FEW
09:43 8.3 °F 2.1 °F 1006.7 in WNW 41.8 mph 41.8 mph 65 % 0.0 in 130.0 W/m2 FEW
09:48 8.3 °F 2.1 °F 1007.0 in NW 38.9 mph 38.9 mph 65 % 0.0 in 118.0 W/m2 CLR
09:53 8.9 °F 2.4 °F 1007.3 in NW 37.0 mph 37.0 mph 64 % 0.0 in 165.0 W/m2 CLR
09:58 8.9 °F 2.2 °F 1007.3 in NNW 48.1 mph 48.1 mph 63 % 0.0 in 207.0 W/m2 CLR
10:01 8.9 °F 2.4 °F 1007.3 in NNW 30.6 mph 30.6 mph 64 % 0.0 in 199.0 W/m2 CLR
10:04 8.9 °F 2.2 °F 1007.3 in NW 37.0 mph 37.0 mph 63 % 0.0 in 220.0 W/m2 CLR
10:08 9.4 °F 2.7 °F 1007.3 in NW 41.8 mph 41.8 mph 63 % 0.0 in 162.0 W/m2 CLR
10:11 9.4 °F 2.5 °F 1007.7 in NW 42.6 mph 42.6 mph 62 % 0.0 in 102.0 W/m2 CLR
10:16 9.4 °F 2.5 °F 1007.7 in NW 42.6 mph 42.6 mph 62 % 0.0 in 163.0 W/m2 CLR
10:18 9.4 °F 2.5 °F 1007.7 in NNW 45.1 mph 45.1 mph 62 % 0.0 in 128.0 W/m2 CLR
10:23 9.4 °F 2.5 °F 1007.7 in NW 42.6 mph 42.6 mph 62 % 0.0 in 100.0 W/m2 CLR
10:25 9.4 °F 2.5 °F 1007.7 in NW 33.3 mph 33.3 mph 62 % 0.0 in 100.0 W/m2 CLR
10:29 9.4 °F 2.5 °F 1007.7 in NW 40.7 mph 40.7 mph 62 % 0.0 in 98.0 W/m2 CLR
10:31 9.4 °F 2.5 °F 1007.7 in NW 33.3 mph 33.3 mph 62 % 0.0 in 100.0 W/m2 CLR
10:34 9.4 °F 2.3 °F 1007.7 in NNW 50.0 mph 50.0 mph 61 % 0.0 in 109.0 W/m2 CLR
10:38 9.4 °F 2.1 °F 1007.7 in NW 44.4 mph 44.4 mph 60 % 0.0 in 130.0 W/m2 CLR
10:39 9.4 °F 2.1 °F 1007.7 in NW 46.3 mph 46.3 mph 60 % 0.0 in 120.0 W/m2 CLR
10:44 9.4 °F 2.3 °F 1007.7 in NNW 42.6 mph 42.6 mph 61 % 0.0 in 125.0 W/m2 CLR
10:49 9.4 °F 2.1 °F 1007.7 in NW 42.6 mph 42.6 mph 60 % 0.0 in 295.0 W/m2 CLR
10:52 10.0 °F 2.6 °F 1008.0 in NW 42.6 mph 42.6 mph 60 % 0.0 in 301.0 W/m2 CLR
10:57 10.0 °F 2.3 °F 1008.0 in NW 40.7 mph 40.7 mph 59 % 0.0 in 364.0 W/m2 CLR
10:59 10.6 °F 2.9 °F 1008.0 in NW 38.9 mph 38.9 mph 59 % 0.0 in 417.0 W/m2 CLR
11:00 10.6 °F 2.9 °F 1008.0 in NW 38.9 mph 38.9 mph 59 % 0.0 in 417.0 W/m2 CLR
11:05 10.6 °F 2.9 °F 1008.0 in NW 37.0 mph 37.0 mph 59 % 0.0 in 223.0 W/m2 CLR
11:08 11.1 °F 3.2 °F 1008.0 in NW 48.1 mph 48.1 mph 58 % 0.0 in 251.0 W/m2 CLR
11:11 11.1 °F 3.2 °F 1008.0 in NNW 46.3 mph 46.3 mph 58 % 0.0 in 362.0 W/m2 CLR
11:15 11.1 °F 3.2 °F 1008.0 in NNW 37.0 mph 37.0 mph 58 % 0.0 in 490.0 W/m2 CLR
11:17 11.1 °F 2.9 °F 1008.4 in NW 40.2 mph 40.2 mph 57 % 0.0 in 512.0 W/m2 CLR
11:22 11.1 °F 2.7 °F 1008.4 in NW 44.4 mph 44.4 mph 56 % 0.0 in 230.0 W/m2 CLR
11:24 11.1 °F 2.7 °F 1008.4 in NW 48.1 mph 48.1 mph 56 % 0.0 in 186.0 W/m2 CLR
11:27 11.1 °F 2.9 °F 1008.4 in NNW 37.0 mph 37.0 mph 57 % 0.0 in 227.0 W/m2 CLR
11:29 11.1 °F 3.2 °F 1008.4 in NW 33.3 mph 33.3 mph 58 % 0.0 in 158.0 W/m2 CLR
11:34 11.1 °F 2.9 °F 1008.4 in NNW 46.3 mph 46.3 mph 57 % 0.0 in 179.0 W/m2 CLR
11:36 11.1 °F 2.9 °F 1008.4 in NNW 50.0 mph 50.0 mph 57 % 0.0 in 185.0 W/m2 CLR
11:39 11.1 °F 2.7 °F 1008.7 in NNW 55.5 mph 55.5 mph 56 % 0.0 in 162.0 W/m2 CLR
11:41 11.1 °F 2.9 °F 1008.4 in NNW 42.6 mph 42.6 mph 57 % 0.0 in 139.0 W/m2 CLR
11:46 11.1 °F 2.9 °F 1008.4 in West 37.0 mph 37.0 mph 57 % 0.0 in 448.0 W/m2 CLR
11:48 11.1 °F 2.9 °F 1008.4 in NNW 43.4 mph 43.4 mph 57 % 0.0 in 429.0 W/m2 CLR
11:49 11.1 °F 2.9 °F 1008.7 in NW 44.4 mph 44.4 mph 57 % 0.0 in 429.0 W/m2 CLR
11:54 11.1 °F 2.7 °F 1008.4 in NW 43.4 mph 43.4 mph 56 % 0.0 in 197.0 W/m2 CLR
11:55 11.1 °F 2.7 °F 1008.4 in NNW 42.6 mph 42.6 mph 56 % 0.0 in 197.0 W/m2 CLR
11:59 11.1 °F 2.9 °F 1008.4 in NW 50.0 mph 50.0 mph 57 % 0.0 in 171.0 W/m2 CLR
12:04 11.1 °F 2.9 °F 1008.4 in NNW 42.6 mph 42.6 mph 57 % 0.0 in 522.0 W/m2 CLR
12:05 11.1 °F 2.9 °F 1008.4 in NNW 42.6 mph 42.6 mph 57 % 0.0 in 504.0 W/m2 CLR
12:10 11.7 °F 3.4 °F 1008.4 in NW 42.6 mph 42.6 mph 57 % 0.0 in 221.0 W/m2 CLR
12:12 11.7 °F 3.4 °F 1008.4 in NW 42.6 mph 42.6 mph 57 % 0.0 in 531.0 W/m2 CLR
12:14 11.7 °F 3.2 °F 1008.4 in NW 31.5 mph 31.5 mph 56 % 0.0 in 230.0 W/m2 CLR
12:19 11.7 °F 2.7 °F 1008.4 in NNW 40.7 mph 40.7 mph 54 % 0.0 in 174.0 W/m2 CLR
12:20 11.7 °F 2.9 °F 1008.4 in North 46.3 mph 46.3 mph 55 % 0.0 in 162.0 W/m2 CLR
12:24 11.7 °F 2.9 °F 1008.4 in NNW 48.1 mph 48.1 mph 55 % 0.0 in 149.0 W/m2 CLR
12:29 11.1 °F 2.9 °F 1008.4 in North 42.6 mph 42.6 mph 57 % 0.0 in 207.0 W/m2 CLR
12:32 11.1 °F 2.4 °F 1008.4 in NW 53.7 mph 53.7 mph 55 % 0.0 in 232.0 W/m2 CLR
12:37 11.1 °F 2.4 °F 1008.4 in North 44.4 mph 44.4 mph 55 % 0.3 in 141.0 W/m2 RA
12:42 11.1 °F 2.7 °F 1008.4 in NNW 48.1 mph 48.1 mph 56 % 0.3 in 160.0 W/m2 CLR
12:43 11.1 °F 2.7 °F 1008.4 in NW 48.1 mph 48.1 mph 56 % 0.3 in 160.0 W/m2 CLR
12:48 11.1 °F 2.4 °F 1008.4 in North 46.3 mph 46.3 mph 55 % 0.3 in 257.0 W/m2 CLR
12:51 11.7 °F 2.4 °F 1008.7 in North 62.9 mph 62.9 mph 53 % 0.3 in 265.0 W/m2 CLR
12:56 11.7 °F 2.4 °F 1008.7 in NNW 55.5 mph 55.5 mph 53 % 0.3 in 171.0 W/m2 CLR
12:57 11.7 °F 2.1 °F 1008.7 in North 64.8 mph 64.8 mph 52 % 0.3 in 171.0 W/m2 CLR
13:02 11.7 °F 2.7 °F 1008.4 in NW 37.0 mph 37.0 mph 54 % 0.3 in 190.0 W/m2 CLR
13:03 11.7 °F 2.7 °F 1008.4 in North 37.0 mph 37.0 mph 54 % 0.3 in 190.0 W/m2 CLR
13:05 11.7 °F 2.7 °F 1008.4 in NW 35.2 mph 35.2 mph 54 % 0.3 in 185.0 W/m2 CLR
13:06 11.7 °F 2.9 °F 1008.4 in North 44.4 mph 44.4 mph 55 % 0.3 in 171.0 W/m2 CLR
13:11 11.1 °F 2.4 °F 1008.7 in North 40.7 mph 40.7 mph 55 % 0.3 in 151.0 W/m2 CLR
13:12 11.1 °F 2.4 °F 1008.7 in NNW 42.6 mph 42.6 mph 55 % 0.3 in 151.0 W/m2 CLR
13:14 11.1 °F 1.9 °F 1008.7 in North 70.3 mph 70.3 mph 53 % 0.3 in 142.0 W/m2 CLR
13:19 11.1 °F 2.2 °F 1008.7 in North 53.7 mph 53.7 mph 54 % 0.3 in 100.0 W/m2 CLR
13:23 11.1 °F 2.4 °F 1008.7 in North 35.2 mph 35.2 mph 55 % 0.3 in 490.0 W/m2 CLR
13:25 11.1 °F 2.2 °F 1008.7 in NNW 53.7 mph 53.7 mph 54 % 0.3 in 490.0 W/m2 CLR
13:30 11.1 °F 2.2 °F 1008.7 in North 50.0 mph 50.0 mph 54 % 0.3 in 81.0 W/m2 CLR
13:35 10.6 °F 2.1 °F 1008.7 in NNW 40.7 mph 40.7 mph 56 % 0.3 in 70.0 W/m2 FEW
13:36 10.6 °F 2.1 °F 1008.7 in North 40.7 mph 40.7 mph 56 % 0.3 in 93.0 W/m2 FEW
13:41 10.6 °F 2.1 °F 1008.7 in North 46.3 mph 46.3 mph 56 % 0.0 in 74.0 W/m2 CLR
13:46 11.1 °F 1.9 °F 1009.0 in North 56.3 mph 56.3 mph 53 % 0.0 in 341.0 W/m2 CLR
13:48 11.1 °F 1.9 °F 1009.0 in NNW 46.7 mph 46.7 mph 53 % 0.0 in 341.0 W/m2 CLR
13:49 11.1 °F 1.6 °F 1009.0 in North 56.3 mph 56.3 mph 52 % 0.0 in 341.0 W/m2 CLR
13:54 11.1 °F 1.1 °F 1009.0 in North 67.6 mph 67.6 mph 50 % 0.0 in 410.0 W/m2 CLR
13:55 11.1 °F 1.1 °F 1009.0 in NNW 68.5 mph 68.5 mph 50 % 0.0 in 406.0 W/m2 CLR
14:00 11.1 °F 0.8 °F 1009.0 in NNW 64.8 mph 64.8 mph 49 % 0.0 in 404.0 W/m2 CLR
14:01 11.1 °F 0.8 °F 1009.0 in NNW 75.9 mph 75.9 mph 49 % 0.0 in 411.0 W/m2 CLR
14:02 11.1 °F 1.1 °F 1009.0 in NNW 66.6 mph 66.6 mph 50 % 0.0 in 406.0 W/m2 CLR
14:07 11.1 °F 1.1 °F 1009.0 in North 55.5 mph 55.5 mph 50 % 0.0 in 394.0 W/m2 CLR
14:12 11.1 °F 1.1 °F 1008.7 in North 68.5 mph 68.5 mph 50 % 0.0 in 390.0 W/m2 CLR
14:14 11.1 °F 0.8 °F 1009.0 in NNW 75.9 mph 75.9 mph 49 % 0.0 in 388.0 W/m2 CLR
14:19 11.1 °F 1.1 °F 1008.7 in North 55.5 mph 55.5 mph 50 % 0.0 in 381.0 W/m2 CLR
14:24 11.1 °F 1.1 °F 1008.7 in NNW 42.6 mph 42.6 mph 50 % 0.0 in 376.0 W/m2 CLR
14:26 11.1 °F 1.3 °F 1008.7 in North 40.7 mph 40.7 mph 51 % 0.0 in 374.0 W/m2 CLR
14:31 11.1 °F 0.8 °F 1009.0 in NNW 48.1 mph 48.1 mph 49 % 0.0 in 364.0 W/m2 CLR
14:32 11.1 °F 1.1 °F 1008.7 in North 44.4 mph 44.4 mph 50 % 0.0 in 366.0 W/m2 CLR
14:34 11.1 °F 0.8 °F 1008.7 in North 48.1 mph 48.1 mph 49 % 0.0 in 366.0 W/m2 CLR
14:39 11.1 °F 0.5 °F 1008.7 in North 70.3 mph 70.3 mph 48 % 0.0 in 359.0 W/m2 CLR
14:40 11.1 °F 0.5 °F 1008.7 in North 70.3 mph 70.3 mph 48 % 0.0 in 359.0 W/m2 CLR
14:41 11.1 °F 0.5 °F 1009.0 in North 61.1 mph 61.1 mph 48 % 0.0 in 353.0 W/m2 CLR
14:46 11.1 °F 0.5 °F 1008.7 in North 61.1 mph 61.1 mph 48 % 0.0 in 360.0 W/m2 CLR
14:48 11.1 °F 0.8 °F 1008.7 in North 55.5 mph 55.5 mph 49 % 0.0 in 137.0 W/m2 CLR
14:51 11.1 °F 0.8 °F 1009.0 in NNW 55.5 mph 55.5 mph 49 % 0.0 in 232.0 W/m2 CLR
14:54 11.1 °F 0.8 °F 1008.7 in NW 55.5 mph 55.5 mph 49 % 0.0 in 232.0 W/m2 CLR
14:59 11.1 °F 0.5 °F 1008.7 in North 46.3 mph 46.3 mph 48 % 0.0 in 308.0 W/m2 CLR
15:01 11.1 °F 0.2 °F 1008.7 in North 51.8 mph 51.8 mph 47 % 0.0 in 76.0 W/m2 CLR
15:06 11.1 °F 0.2 °F 1008.7 in North 64.8 mph 64.8 mph 47 % 0.0 in 309.0 W/m2 CLR
15:07 11.1 °F 0.5 °F 1008.7 in NNW 51.8 mph 51.8 mph 48 % 0.0 in 308.0 W/m2 CLR
15:11 11.1 °F 0.2 °F 1008.7 in North 59.2 mph 59.2 mph 47 % 0.0 in 295.0 W/m2 CLR
15:12 11.1 °F -0.1 °F 1008.7 in North 66.6 mph 66.6 mph 46 % 0.0 in 290.0 W/m2 CLR
15:17 11.1 °F 0.2 °F 1008.7 in North 35.2 mph 38.1 mph 47 % 0.0 in 287.0 W/m2 CLR
15:18 11.1 °F 0.2 °F 1008.7 in North 59.2 mph 59.2 mph 47 % 0.0 in 288.0 W/m2 CLR
15:23 11.1 °F 0.5 °F 1009.0 in North 42.6 mph 42.6 mph 48 % 0.0 in 279.0 W/m2 CLR
15:24 11.1 °F 0.5 °F 1009.0 in North 40.7 mph 40.7 mph 48 % 0.0 in 264.0 W/m2 CLR
15:29 10.6 °F 0.3 °F 1009.0 in NNE 44.4 mph 44.4 mph 49 % 0.0 in 264.0 W/m2 CLR
15:31 10.6 °F 0.3 °F 1009.4 in North 56.3 mph 56.3 mph 49 % 0.0 in 262.0 W/m2 CLR
15:36 10.6 °F 0.3 °F 1009.4 in North 51.8 mph 51.8 mph 49 % 0.0 in 250.0 W/m2 CLR
15:41 10.6 °F 0.3 °F 1009.4 in North 53.7 mph 53.7 mph 49 % 0.0 in 244.0 W/m2 CLR
15:42 10.6 °F 0.0 °F 1009.4 in North 53.7 mph 53.7 mph 48 % 0.0 in 244.0 W/m2 CLR
15:47 10.6 °F 0.3 °F 1009.4 in North 53.7 mph 53.7 mph 49 % 0.0 in 225.0 W/m2 CLR
15:48 10.6 °F 0.3 °F 1009.4 in North 53.7 mph 53.7 mph 49 % 0.0 in 225.0 W/m2 CLR
15:50 10.6 °F 0.6 °F 1009.4 in NNW 44.4 mph 44.4 mph 50 % 0.0 in 211.0 W/m2 CLR
15:55 10.6 °F 0.6 °F 1009.7 in NNW 35.2 mph 35.2 mph 50 % 0.0 in 199.0 W/m2 CLR
16:00 10.6 °F 0.3 °F 1009.7 in North 62.9 mph 62.9 mph 49 % 0.0 in 211.0 W/m2 CLR
16:02 10.6 °F 0.6 °F 1009.7 in North 46.3 mph 46.3 mph 50 % 0.0 in 156.0 W/m2 CLR
16:04 10.6 °F 0.6 °F 1009.7 in NNE 43.4 mph 43.4 mph 50 % 0.0 in 253.0 W/m2 CLR
16:07 10.6 °F 0.6 °F 1009.7 in North 44.4 mph 44.4 mph 50 % 0.0 in 272.0 W/m2 CLR
16:10 10.6 °F 0.6 °F 1009.7 in NNE 42.6 mph 42.6 mph 50 % 0.0 in 278.0 W/m2 CLR
16:13 10.6 °F 0.6 °F 1009.7 in North 40.2 mph 40.2 mph 50 % 0.0 in 211.0 W/m2 CLR
16:18 10.0 °F 0.3 °F 1009.7 in North 31.5 mph 31.5 mph 51 % 0.0 in 172.0 W/m2 CLR
16:20 10.0 °F 0.6 °F 1010.0 in North 48.1 mph 48.1 mph 52 % 0.0 in 158.0 W/m2 CLR
16:25 10.0 °F 0.8 °F 1010.0 in NNE 42.6 mph 42.6 mph 53 % 0.0 in 63.0 W/m2 CLR
16:28 10.0 °F 0.8 °F 1010.0 in North 42.6 mph 42.6 mph 53 % 0.0 in 47.0 W/m2 FEW
16:31 9.4 °F 0.6 °F 1009.7 in North 33.3 mph 33.3 mph 54 % 0.0 in 42.0 W/m2 FEW
16:36 9.4 °F 0.6 °F 1010.0 in NNW 37.0 mph 37.0 mph 54 % 0.0 in 28.0 W/m2 BKN
16:37 9.4 °F 0.6 °F 1010.0 in North 40.7 mph 40.7 mph 54 % 0.0 in 28.0 W/m2 BKN
16:41 9.4 °F 0.6 °F 1010.0 in North 46.7 mph 46.7 mph 54 % 0.0 in 26.0 W/m2 BKN
16:42 9.4 °F 0.8 °F 1010.0 in North 46.3 mph 46.3 mph 55 % 0.0 in 26.0 W/m2 BKN
16:47 9.4 °F 0.8 °F 1010.0 in North 46.3 mph 46.3 mph 55 % 0.0 in 16.0 W/m2 BKN
16:48 9.4 °F 0.8 °F 1010.0 in North 46.3 mph 46.3 mph 55 % 0.0 in 16.0 W/m2 BKN
16:53 9.4 °F 1.1 °F 1010.0 in NNE 35.2 mph 35.2 mph 56 % 0.0 in 12.0 W/m2 BKN
16:58 9.4 °F 1.3 °F 1010.4 in North 40.7 mph 40.7 mph 57 % 0.0 in 16.0 W/m2 BKN
17:01 9.4 °F 1.6 °F 1010.4 in NNE 40.7 mph 40.7 mph 58 % 0.0 in 19.0 W/m2 BKN
17:06 8.9 °F 1.1 °F 1010.4 in North 35.2 mph 35.2 mph 58 % 0.0 in 25.0 W/m2 BKN
17:10 8.9 °F 1.1 °F 1010.4 in NNE 38.6 mph 38.6 mph 58 % 0.0 in 21.0 W/m2 BKN
17:15 8.9 °F 1.1 °F 1010.4 in North 37.0 mph 37.0 mph 58 % 0.0 in 11.0 W/m2 BKN
17:17 8.9 °F 1.1 °F 1010.7 in North 35.2 mph 35.2 mph 58 % 0.0 in 9.0 W/m2 BKN
17:22 8.3 °F 0.8 °F 1010.7 in NNE 37.0 mph 37.0 mph 59 % 0.0 in 7.0 W/m2 BKN
17:23 8.3 °F 0.8 °F 1010.7 in NNE 37.0 mph 37.0 mph 59 % 0.0 in 5.0 W/m2 BKN
17:28 8.3 °F 1.0 °F 1010.7 in North 31.5 mph 31.5 mph 60 % 0.0 in 5.0 W/m2 OVC
17:33 8.3 °F 1.2 °F 1010.7 in North 31.5 mph 31.5 mph 61 % 0.0 in 0.0 W/m2 OVC
17:36 8.3 °F 1.4 °F 1011.1 in NNE 27.8 mph 27.8 mph 62 % 0.0 in 0.0 W/m2 OVC
17:41 8.3 °F 1.4 °F 1010.7 in North 27.8 mph 27.8 mph 62 % 0.0 in 0.0 W/m2 OVC
17:43 8.3 °F 1.4 °F 1010.7 in North 29.0 mph 29.0 mph 62 % 0.0 in 0.0 W/m2 OVC
17:46 7.8 °F 0.9 °F 1010.7 in North 50.0 mph 50.0 mph 62 % 0.0 in 0.0 W/m2 OVC
17:48 7.8 °F 0.9 °F 1010.7 in North 29.6 mph 29.6 mph 62 % 0.0 in 0.0 W/m2 CLR
17:53 7.8 °F 1.2 °F 1010.7 in NNE 38.6 mph 38.6 mph 63 % 0.0 in 0.0 W/m2 CLR
17:58 7.8 °F 1.2 °F 1011.1 in NNE 29.6 mph 29.6 mph 63 % 0.0 in 0.0 W/m2 CLR
18:00 7.8 °F 1.4 °F 1010.7 in North 25.9 mph 25.9 mph 64 % 0.0 in 0.0 W/m2 CLR
18:02 7.8 °F 1.4 °F 1011.1 in NNW 33.3 mph 33.3 mph 64 % 0.0 in 0.0 W/m2 CLR
18:05 7.8 °F 1.6 °F 1011.1 in NNW 31.5 mph 31.5 mph 65 % 0.0 in 0.0 W/m2 CLR
18:10 7.2 °F 1.1 °F 1011.4 in North 33.3 mph 33.3 mph 65 % 0.0 in 0.0 W/m2 CLR
18:12 7.2 °F 1.1 °F 1011.4 in North 25.9 mph 25.9 mph 65 % 0.0 in 0.0 W/m2 CLR
18:17 7.2 °F 1.1 °F 1011.4 in North 29.6 mph 29.6 mph 65 % 0.0 in 0.0 W/m2 CLR
18:22 7.2 °F 1.1 °F 1011.4 in NNW 29.6 mph 29.6 mph 65 % 0.0 in 0.0 W/m2 CLR
18:23 7.8 °F 1.6 °F 1011.7 in NNW 25.9 mph 25.9 mph 65 % 0.0 in 0.0 W/m2 CLR
18:28 7.8 °F 1.6 °F 1011.7 in North 24.1 mph 24.1 mph 65 % 0.0 in 0.0 W/m2 CLR
18:30 7.8 °F 1.6 °F 1011.7 in NNW 31.5 mph 31.5 mph 65 % 0.0 in 0.0 W/m2 CLR
18:35 7.8 °F 1.6 °F 1011.7 in North 25.9 mph 25.9 mph 65 % 0.0 in 0.0 W/m2 CLR
18:36 7.8 °F 1.6 °F 1011.7 in North 22.2 mph 22.2 mph 65 % 0.0 in 0.0 W/m2 CLR
18:40 7.8 °F 1.6 °F 1012.1 in North 31.5 mph 31.5 mph 65 % 0.0 in 0.0 W/m2 CLR
18:41 7.8 °F 1.6 °F 1012.1 in North 37.0 mph 37.0 mph 65 % 0.0 in 0.0 W/m2 CLR
18:46 7.8 °F 1.6 °F 1012.1 in NNW 31.5 mph 31.5 mph 65 % 0.0 in 0.0 W/m2 CLR
18:47 7.8 °F 1.6 °F 1012.1 in NNW 27.8 mph 27.8 mph 65 % 0.0 in 0.0 W/m2 CLR
18:49 7.8 °F 1.4 °F 1012.1 in NNW 24.1 mph 24.1 mph 64 % 0.0 in 0.0 W/m2 CLR
18:52 7.8 °F 1.4 °F 1012.1 in NNW 40.7 mph 40.7 mph 64 % 0.0 in 0.0 W/m2 CLR
18:57 7.8 °F 1.2 °F 1012.1 in North 40.7 mph 40.7 mph 63 % 0.0 in 0.0 W/m2 CLR
18:58 7.8 °F 1.2 °F 1012.1 in North 40.7 mph 40.7 mph 63 % 0.0 in 0.0 W/m2 CLR
19:00 7.8 °F 1.2 °F 1012.1 in NNE 44.4 mph 44.4 mph 63 % 0.0 in 0.0 W/m2 CLR
19:03 7.8 °F 1.2 °F 1012.1 in NNW 42.6 mph 42.6 mph 63 % 0.0 in 0.0 W/m2 CLR
19:08 7.8 °F 1.2 °F 1012.4 in North 38.9 mph 38.9 mph 63 % 0.0 in 0.0 W/m2 CLR
19:09 7.8 °F 1.2 °F 1012.4 in North 38.9 mph 46.7 mph 63 % 0.0 in 0.0 W/m2 CLR
19:14 7.2 °F 0.8 °F 1012.4 in North 33.3 mph 33.3 mph 64 % 0.0 in 0.0 W/m2 CLR
19:19 7.2 °F 1.1 °F 1012.4 in North 43.4 mph 43.4 mph 65 % 0.0 in 0.0 W/m2 CLR
19:22 7.2 °F 1.1 °F 1012.4 in NNE 46.3 mph 46.3 mph 65 % 0.0 in 0.0 W/m2 CLR
19:27 7.2 °F 1.3 °F 1012.4 in North 35.2 mph 35.2 mph 66 % 0.0 in 0.0 W/m2 CLR
19:32 7.2 °F 1.3 °F 1012.4 in NNW 29.6 mph 29.6 mph 66 % 0.0 in 0.0 W/m2 CLR
19:33 7.2 °F 1.3 °F 1012.8 in NNW 29.6 mph 29.6 mph 66 % 0.0 in 0.0 W/m2 CLR
19:34 7.2 °F 1.3 °F 1012.8 in North 41.8 mph 41.8 mph 66 % 0.0 in 0.0 W/m2 CLR
19:39 6.7 °F 0.8 °F 1012.8 in NNW 42.6 mph 42.6 mph 66 % 0.0 in 0.0 W/m2 CLR
19:41 6.7 °F 0.8 °F 1012.8 in North 38.9 mph 38.9 mph 66 % 0.0 in 0.0 W/m2 CLR
19:44 6.7 °F 0.8 °F 1012.8 in NNW 31.5 mph 31.5 mph 66 % 0.0 in 0.0 W/m2 CLR
19:46 6.7 °F 0.8 °F 1012.8 in NNW 31.5 mph 31.5 mph 66 % 0.0 in 0.0 W/m2 CLR
19:48 6.7 °F 0.8 °F 1012.8 in NNW 31.5 mph 31.5 mph 66 % 0.0 in 0.0 W/m2 CLR
19:52 6.7 °F 0.9 °F 1012.8 in North 29.6 mph 29.6 mph 67 % 0.0 in 0.0 W/m2 CLR
19:57 7.2 °F 1.5 °F 1013.1 in NNW 29.6 mph 29.6 mph 67 % 0.0 in 0.0 W/m2 CLR
19:58 7.2 °F 1.5 °F 1013.1 in NNW 29.6 mph 29.6 mph 67 % 0.0 in 0.0 W/m2 CLR
20:03 7.2 °F 1.5 °F 1013.1 in NNW 25.9 mph 25.9 mph 67 % 0.0 in 0.0 W/m2 CLR
20:08 7.2 °F 1.3 °F 1013.1 in NW 25.9 mph 25.9 mph 66 % 0.0 in 0.0 W/m2 CLR
20:10 7.2 °F 1.3 °F 1013.1 in NNW 27.8 mph 27.8 mph 66 % 0.0 in 0.0 W/m2 CLR
20:15 7.2 °F 1.3 °F 1013.1 in North 27.8 mph 27.8 mph 66 % 0.0 in 0.0 W/m2 CLR
20:20 7.2 °F 1.1 °F 1013.4 in NNW 31.5 mph 31.5 mph 65 % 0.0 in 0.0 W/m2 CLR
20:21 7.2 °F 1.1 °F 1013.1 in NW 29.6 mph 29.6 mph 65 % 0.0 in 0.0 W/m2 CLR
20:22 7.2 °F 1.1 °F 1013.4 in North 42.6 mph 42.6 mph 65 % 0.0 in 0.0 W/m2 CLR
20:26 7.2 °F 1.1 °F 1013.4 in NNW 31.5 mph 31.5 mph 65 % 0.0 in 0.0 W/m2 CLR
20:29 7.2 °F 1.1 °F 1013.4 in North 29.6 mph 29.6 mph 65 % 0.0 in 0.0 W/m2 CLR
20:34 7.2 °F 1.1 °F 1013.4 in NNW 37.0 mph 37.0 mph 65 % 0.0 in 0.0 W/m2 CLR
20:35 7.2 °F 1.1 °F 1013.4 in NNW 33.3 mph 33.3 mph 65 % 0.0 in 0.0 W/m2 CLR
20:39 7.2 °F 1.1 °F 1013.8 in NNW 29.6 mph 29.6 mph 65 % 0.0 in 0.0 W/m2 CLR
20:42 7.2 °F 1.3 °F 1013.8 in NNW 33.3 mph 33.3 mph 66 % 0.0 in 0.0 W/m2 CLR
20:44 7.2 °F 1.3 °F 1013.8 in North 33.3 mph 33.3 mph 66 % 0.0 in 0.0 W/m2 CLR
20:49 7.2 °F 1.3 °F 1013.8 in NW 22.2 mph 22.2 mph 66 % 0.0 in 0.0 W/m2 CLR
20:50 7.2 °F 1.3 °F 1013.8 in NNW 22.2 mph 22.2 mph 66 % 0.0 in 0.0 W/m2 CLR
20:55 6.7 °F 0.8 °F 1013.8 in NW 33.3 mph 33.3 mph 66 % 0.0 in 0.0 W/m2 CLR
21:00 7.2 °F 1.5 °F 1013.4 in NW 18.5 mph 18.5 mph 67 % 0.0 in 0.0 W/m2 CLR
21:01 7.2 °F 1.3 °F 1013.4 in NNW 24.1 mph 24.1 mph 66 % 0.0 in 0.0 W/m2 CLR
21:04 6.7 °F 0.9 °F 1013.4 in NW 29.6 mph 29.6 mph 67 % 0.0 in 0.0 W/m2 CLR
21:06 6.7 °F 0.9 °F 1013.4 in NW 24.1 mph 24.1 mph 67 % 0.0 in 0.0 W/m2 CLR
21:11 6.7 °F 0.9 °F 1013.4 in NW 27.8 mph 27.8 mph 67 % 0.0 in 0.0 W/m2 CLR
21:12 6.7 °F 0.9 °F 1013.4 in NW 22.2 mph 22.2 mph 67 % 0.0 in 0.0 W/m2 CLR
21:13 6.7 °F 0.9 °F 1013.4 in NNW 31.5 mph 31.5 mph 67 % 0.0 in 0.0 W/m2 CLR
21:18 6.7 °F 1.2 °F 1013.8 in NW 27.8 mph 27.8 mph 68 % 0.0 in 0.0 W/m2 CLR
21:22 6.7 °F 1.2 °F 1013.4 in NNW 38.9 mph 38.9 mph 68 % 0.0 in 0.0 W/m2 CLR
21:26 6.7 °F 1.4 °F 1013.4 in NW 27.8 mph 27.8 mph 69 % 0.0 in 0.0 W/m2 CLR
21:27 6.7 °F 1.4 °F 1013.4 in NW 29.6 mph 29.6 mph 69 % 0.0 in 0.0 W/m2 CLR
21:32 6.7 °F 1.4 °F 1013.4 in NW 24.1 mph 24.1 mph 69 % 0.0 in 0.0 W/m2 CLR
21:37 6.7 °F 1.4 °F 1013.4 in NW 27.8 mph 27.8 mph 69 % 0.0 in 0.0 W/m2 CLR
21:38 6.7 °F 1.4 °F 1013.4 in NW 27.8 mph 27.8 mph 69 % 0.0 in 0.0 W/m2 CLR
21:43 6.7 °F 1.4 °F 1013.4 in NW 29.6 mph 29.6 mph 69 % 0.0 in 0.0 W/m2 CLR
21:45 6.7 °F 1.4 °F 1013.4 in NNW 32.2 mph 32.2 mph 69 % 0.0 in 0.0 W/m2 CLR
21:48 6.7 °F 1.4 °F 1013.4 in NW 22.2 mph 22.2 mph 69 % 0.0 in 0.0 W/m2 CLR
21:53 6.7 °F 1.4 °F 1013.4 in NNW 22.2 mph 22.2 mph 69 % 0.0 in 0.0 W/m2 CLR
21:54 6.7 °F 1.4 °F 1013.4 in NW 35.2 mph 35.2 mph 69 % 0.0 in 0.0 W/m2 CLR
21:59 6.7 °F 1.4 °F 1013.8 in NNW 29.6 mph 29.6 mph 69 % 0.0 in 0.0 W/m2 CLR
22:02 6.7 °F 1.4 °F 1013.8 in NW 27.8 mph 27.8 mph 69 % 0.0 in 0.0 W/m2 CLR
22:04 6.7 °F 1.4 °F 1013.8 in North 31.5 mph 31.5 mph 69 % 0.0 in 0.0 W/m2 CLR
22:09 6.7 °F 1.4 °F 1013.4 in NNW 33.3 mph 33.3 mph 69 % 0.0 in 0.0 W/m2 CLR
22:10 6.7 °F 1.4 °F 1013.8 in North 29.0 mph 29.0 mph 69 % 0.0 in 0.0 W/m2 CLR
22:15 6.7 °F 1.4 °F 1013.8 in NW 27.8 mph 27.8 mph 69 % 0.0 in 0.0 W/m2 CLR
22:16 6.7 °F 1.4 °F 1013.8 in NNW 22.2 mph 22.2 mph 69 % 0.0 in 0.0 W/m2 CLR
22:18 6.7 °F 1.4 °F 1013.8 in NW 35.2 mph 35.2 mph 69 % 0.0 in 0.0 W/m2 CLR
22:21 6.7 °F 1.4 °F 1013.8 in NNW 29.6 mph 29.6 mph 69 % 0.0 in 0.0 W/m2 CLR
22:26 6.7 °F 1.4 °F 1013.8 in NW 27.8 mph 27.8 mph 69 % 0.0 in 0.0 W/m2 CLR
22:30 6.7 °F 1.4 °F 1013.8 in NNW 22.5 mph 22.5 mph 69 % 0.0 in 0.0 W/m2 CLR
22:32 6.7 °F 1.4 °F 1013.8 in NW 24.1 mph 24.1 mph 69 % 0.0 in 0.0 W/m2 CLR
22:37 6.7 °F 1.4 °F 1013.8 in NW 24.1 mph 24.1 mph 69 % 0.0 in 0.0 W/m2 CLR
22:38 6.7 °F 1.4 °F 1013.4 in North 24.1 mph 24.1 mph 69 % 0.0 in 0.0 W/m2 CLR
22:43 6.7 °F 1.4 °F 1013.4 in NNW 20.4 mph 20.4 mph 69 % 0.0 in 0.0 W/m2 CLR
22:44 6.7 °F 1.4 °F 1013.4 in NW 18.5 mph 18.5 mph 69 % 0.0 in 0.0 W/m2 CLR
22:49 6.7 °F 1.4 °F 1013.4 in NW 25.9 mph 25.9 mph 69 % 0.0 in 0.0 W/m2 CLR
22:51 6.7 °F 1.4 °F 1013.4 in NW 22.5 mph 22.5 mph 69 % 0.0 in 0.0 W/m2 CLR
22:54 6.7 °F 1.4 °F 1013.8 in NW 25.7 mph 25.7 mph 69 % 0.0 in 0.0 W/m2 CLR
22:57 6.7 °F 1.2 °F 1013.8 in NW 31.5 mph 31.5 mph 68 % 0.0 in 0.0 W/m2 CLR
23:01 6.7 °F 1.2 °F 1013.8 in NNW 31.5 mph 31.5 mph 68 % 0.0 in 0.0 W/m2 CLR
23:07 6.7 °F 1.2 °F 1013.8 in North 25.9 mph 25.9 mph 68 % 0.0 in 0.0 W/m2 CLR
23:11 6.7 °F 1.2 °F 1013.8 in NW 20.4 mph 20.4 mph 68 % 0.0 in 0.0 W/m2 CLR
23:12 6.7 °F 1.2 °F 1013.8 in NNW 20.4 mph 20.4 mph 68 % 0.0 in 0.0 W/m2 CLR
23:17 6.7 °F 1.2 °F 1013.8 in NW 24.1 mph 24.1 mph 68 % 0.0 in 0.0 W/m2 CLR
23:19 6.7 °F 1.2 °F 1013.8 in NNW 20.9 mph 20.9 mph 68 % 0.0 in 0.0 W/m2 CLR
23:24 6.7 °F 1.2 °F 1013.8 in NW 16.7 mph 16.7 mph 68 % 0.0 in 0.0 W/m2 CLR
23:26 6.7 °F 1.2 °F 1013.8 in NW 16.7 mph 16.7 mph 68 % 0.0 in 0.0 W/m2 CLR
23:30 6.7 °F 1.2 °F 1013.8 in NW 18.5 mph 18.5 mph 68 % 0.0 in 0.0 W/m2 CLR
23:35 6.7 °F 1.2 °F 1013.8 in NW 24.1 mph 24.1 mph 68 % 0.0 in 0.0 W/m2 CLR
23:36 6.7 °F 1.2 °F 1013.8 in NW 24.1 mph 24.1 mph 68 % 0.0 in 0.0 W/m2 CLR
23:41 6.7 °F 1.2 °F 1013.8 in NW 18.5 mph 18.5 mph 68 % 0.0 in 0.0 W/m2 CLR
23:43 6.7 °F 1.2 °F 1013.8 in NW 18.5 mph 18.5 mph 68 % 0.0 in 0.0 W/m2 CLR
23:47 6.7 °F 1.2 °F 1013.8 in NW 22.2 mph 22.2 mph 68 % 0.0 in 0.0 W/m2 CLR
23:50 6.7 °F 1.2 °F 1013.8 in NNW 27.8 mph 27.8 mph 68 % 0.0 in 0.0 W/m2 CLR
23:52 6.7 °F 1.2 °F 1013.8 in NNW 24.1 mph 24.1 mph 68 % 0.0 in 0.0 W/m2 CLR
23:57 6.7 °F 1.2 °F 1013.4 in NNW 27.8 mph 27.8 mph 68 % 0.0 in 0.0 W/m2 CLR
Lo Temps de Massalio
Compliments of Weather Underground - 1.75 mb